EW7038 Weather Reports


Display with metric or nautical units.
time (UTC)temp
F
wind
direction
speed
MPH
gust
MPH
rain 1hr
in
rain 24hr
in
rain mn
in
humidity
%
barometer
mb
20260903035836 57 235 2.0 9.0 0.00 0.15 0.15 75 1007.8
20260903034816 57 240 5.0 15.0 0.00 0.15 0.15 73 1007.8
20260903033816 57 260 4.0 19.0 0.00 0.15 0.15 73 1007.8
20260903032835 57 266 9.0 17.0 0.00 0.15 0.15 73 1007.7
20260903031817 57 250 9.0 19.0 0.00 0.15 0.15 72 1007.7
20260903030817 57 262 9.0 19.0 0.00 0.15 0.15 73 1007.6
20260903025816 57 253 6.0 18.0 0.01 0.15 0.15 75 1007.5
20260903024816 57 232 8.0 21.0 0.05 0.15 0.15 75 1007.5
20260903023816 57 270 7.0 17.0 0.07 0.15 0.15 74 1007.5
20260903022815 57 250 7.0 17.0 0.07 0.15 0.15 76 1007.3
20260903021815 58 270 9.0 20.0 0.07 0.15 0.15 76 1007.3
20260903020818 58 259 9.0 15.0 0.07 0.15 0.15 79 1007.2
20260903015817 58 251 3.0 11.0 0.06 0.14 0.14 82 1007.1
20260903014816 58 280 7.0 16.0 0.03 0.10 0.10 81 1007.0
20260903013816 58 272 3.0 9.0 0.01 0.08 0.08 81 1006.8
20260903012816 58 303 2.0 3.0 0.01 0.08 0.08 83 1006.8
20260903011815 58 146 2.0 5.0 0.02 0.08 0.08 83 1006.7
20260903010817 58 257 3.0 9.0 0.03 0.08 0.08 80 1006.7
20260903005817 58 267 3.0 6.0 0.03 0.08 0.08 79 1006.8
20260903004817 58 262 4.0 7.0 0.03 0.07 0.07 81 1006.9
20260903003816 59 182 1.0 2.0 0.03 0.07 0.07 82 1007.0
20260903002816 59 281 0.0 3.0 0.03 0.07 0.07 81 1006.9
20260903001816 59 248 1.0 6.0 0.03 0.07 0.07 80 1006.9
20260903000835 59 272 1.0 6.0 0.01 0.05 0.05 78 1006.9
20260902235838 60 262 1.0 2.0 0.01 0.04 0.04 79 1006.8
20260902234817 60 202 0.0 1.0 0.00 0.04 0.04 78 1006.8
20260902233816 60 222 1.0 2.0 0.00 0.04 0.04 80 1006.8
20260902232816 60 295 1.0 2.0 0.00 0.04 0.04 78 1006.8
20260902231816 60 276 2.0 4.0 0.00 0.04 0.04 77 1007.0
20260902230815 60 249 3.0 6.0 0.00 0.04 0.04 77 1007.0
20260902225814 59 265 4.0 6.0 0.00 0.04 0.04 77 1007.1
20260902224817 59 257 3.0 7.0 0.01 0.04 0.04 78 1007.1
20260902223817 59 274 1.0 2.0 0.01 0.04 0.04 80 1006.9
20260902222816 59 182 0.0 2.0 0.01 0.04 0.04 81 1007.0
20260902221816 60 182 1.0 2.0 0.01 0.03 0.03 82 1007.1
20260902220835 60 190 1.0 2.0 0.01 0.03 0.03 81 1006.9
20260902215815 60 194 1.0 2.0 0.01 0.03 0.03 81 1006.8
20260902214817 60 245 1.0 2.0 0.01 0.03 0.03 82 1006.6
20260902213837 60 61 1.0 3.0 0.02 0.03 0.03 79 1006.7
20260902212816 60 172 1.0 3.0 0.02 0.03 0.03 79 1006.7
20260902211816 60 99 1.0 3.0 0.02 0.03 0.02 80 1006.7
20260902210836 60 331 1.0 3.0 0.02 0.03 0.02 79 1006.8
20260902205815 60 230 1.0 9.0 0.02 0.02 0.02 75 1006.7
20260902204814 60 264 5.0 9.0 0.01 0.02 0.02 74 1006.7
20260902203818 60 344 2.0 6.0 0.01 0.02 0.01 75 1006.8
20260902202817 60 266 3.0 8.0 0.01 0.01 0.01 75 1006.8
20260902201817 61 274 3.0 13.0 0.01 0.01 0.01 72 1006.9
20260902200816 61 284 6.0 13.0 0.00 0.01 0.00 69 1006.9
20260902195815 61 269 6.0 10.0 0.00 0.01 0.00 69 1006.9
20260902194815 61 278 4.0 8.0 0.00 0.01 0.00 69 1006.9
20260902193817 62 294 3.0 7.0 0.00 0.01 0.00 66 1006.9
20260902192817 63 270 4.0 11.0 0.00 0.01 0.00 61 1006.9
20260902191816 64 272 7.0 13.0 0.00 0.01 0.00 56 1006.8
20260902190816 65 296 3.0 8.0 0.00 0.01 0.00 54 1006.6
20260902185816 66 278 4.0 6.0 0.00 0.01 0.00 50 1006.5
20260902184815 66 299 2.0 4.0 0.00 0.01 0.00 51 1006.6
20260902183814 66 326 1.0 2.0 0.00 0.01 0.00 49 1006.5
20260902182817 66 341 1.0 3.0 0.00 0.01 0.00 49 1006.5
20260902181837 66 13 2.0 3.0 0.00 0.01 0.00 50 1006.5
20260902180817 66 39 2.0 4.0 0.00 0.01 0.00 49 1006.5
20260902175816 66 354 2.0 4.0 0.00 0.01 0.00 49 1006.5
20260902174816 66 0 1.0 3.0 0.00 0.01 0.00 49 1006.6
20260902173815 66 34 2.0 4.0 0.00 0.01 0.00 48 1006.6
20260902172838 66 40 2.0 5.0 0.00 0.01 0.00 49 1006.7
20260902171817 66 6 3.0 4.0 0.00 0.01 0.00 51 1006.8
20260902170817 65 13 2.0 5.0 0.00 0.01 0.00 54 1007.0
20260902165816 64 319 1.0 3.0 0.00 0.01 0.00 57 1007.2
20260902164816 64 45 1.0 3.0 0.00 0.01 0.00 57 1007.2
20260902163816 63 340 2.0 5.0 0.00 0.01 0.00 56 1007.3
20260902162815 64 36 2.0 5.0 0.00 0.01 0.00 56 1007.3
20260902161817 63 22 3.0 6.0 0.00 0.01 0.00 56 1007.3
20260902160817 63 36 3.0 4.0 0.00 0.01 0.00 56 1007.6
20260902155816 62 327 2.0 7.0 0.00 0.01 0.00 58 1007.7
20260902154816 62 261 4.0 11.0 0.00 0.01 0.00 58 1007.7
20260902153816 62 285 6.0 10.0 0.00 0.01 0.00 58 1007.8
20260902152815 61 267 3.0 11.0 0.00 0.01 0.00 59 1008.0
20260902151814 61 262 5.0 11.0 0.00 0.01 0.00 60 1008.0
20260902150818 60 232 4.0 11.0 0.00 0.01 0.00 61 1008.1
20260902145837 60 257 6.0 10.0 0.00 0.01 0.00 62 1008.2
20260902144837 60 304 4.0 11.0 0.00 0.01 0.00 62 1008.2
20260902143816 60 268 4.0 14.0 0.00 0.01 0.00 62 1008.4
20260902142815 60 278 5.0 18.0 0.00 0.01 0.00 60 1008.5
20260902141815 60 261 8.0 17.0 0.00 0.01 0.00 61 1008.6
20260902140837 60 268 7.0 20.0 0.00 0.01 0.00 61 1008.6
20260902135817 60 283 13.0 20.0 0.00 0.01 0.00 60 1008.5
20260902134817 60 283 9.0 24.0 0.00 0.01 0.00 60 1008.6
20260902133816 60 265 11.0 21.0 0.00 0.01 0.00 58 1008.6
20260902132815 61 279 10.0 21.0 0.00 0.01 0.00 57 1008.6
20260902131835 61 259 10.0 19.0 0.00 0.01 0.00 55 1008.7
20260902130815 62 273 7.0 21.0 0.00 0.01 0.00 55 1008.7
20260902125818 61 291 8.0 19.0 0.00 0.01 0.00 54 1008.8
20260902124817 61 274 8.0 19.0 0.00 0.01 0.00 54 1008.8
20260902123816 62 251 7.0 16.0 0.00 0.01 0.00 54 1008.8
20260902122816 62 251 6.0 11.0 0.00 0.01 0.00 55 1008.8
20260902121835 62 275 4.0 14.0 0.00 0.01 0.00 55 1008.9
20260902120815 62 278 6.0 17.0 0.00 0.01 0.00 55 1008.7
20260902115817 62 269 8.0 20.0 0.00 0.01 0.00 54 1008.8
20260902114817 62 285 9.0 19.0 0.00 0.01 0.00 54 1008.9
20260902113836 62 283 5.0 25.0 0.00 0.01 0.00 54 1009.0
20260902112836 62 260 8.0 23.0 0.00 0.01 0.00 54 1009.0
20260902111815 62 271 12.0 23.0 0.00 0.01 0.00 53 1008.9
20260902110836 62 269 12.0 20.0 0.00 0.01 0.00 53 1009.0
20260902105815 62 306 8.0 20.0 0.00 0.01 0.00 53 1009.0
20260902104817 62 289 9.0 15.0 0.00 0.01 0.00 53 1009.0
20260902103817 62 300 7.0 14.0 0.00 0.01 0.00 54 1009.2
20260902102817 62 302 6.0 17.0 0.00 0.01 0.00 56 1009.3
20260902101816 62 263 10.0 19.0 0.00 0.01 0.00 56 1009.4
20260902100816 62 276 9.0 17.0 0.00 0.01 0.00 57 1009.5
20260902095815 62 276 5.0 19.0 0.00 0.01 0.00 57 1009.6
20260902094818 62 284 4.0 12.0 0.00 0.01 0.00 58 1009.5
20260902093818 62 263 7.0 15.0 0.00 0.01 0.00 57 1009.5
20260902092817 62 253 3.0 15.0 0.00 0.01 0.00 58 1009.7
20260902091816 62 196 4.0 12.0 0.00 0.01 0.00 58 1009.7
20260902090816 62 224 3.0 15.0 0.00 0.01 0.00 58 1009.7
20260902085815 62 192 2.0 15.0 0.00 0.01 0.00 58 1009.6
20260902084815 62 224 4.0 13.0 0.00 0.01 0.00 58 1009.6
20260902083818 62 244 6.0 14.0 0.00 0.01 0.00 58 1009.7
20260902082817 62 255 7.0 13.0 0.00 0.01 0.00 58 1009.8
20260902081837 62 270 5.0 17.0 0.00 0.01 0.00 58 1009.6
20260902080816 62 244 5.0 14.0 0.00 0.01 0.00 58 1009.8
20260902075816 62 280 5.0 19.0 0.00 0.01 0.00 59 1009.8
20260902074835 62 279 6.0 14.0 0.00 0.01 0.00 59 1009.9
20260902073814 62 260 7.0 13.0 0.00 0.01 0.00 58 1009.8
20260902072817 62 236 5.0 20.0 0.00 0.01 0.00 58 1009.9
20260902071817 62 241 13.0 27.0 0.00 0.01 0.00 58 1010.1
20260902070816 62 260 9.0 23.0 0.00 0.01 0.00 58 1010.1
20260902065816 62 240 9.0 26.0 0.00 0.01 0.01 57 1010.3
20260902064815 63 266 12.0 22.0 0.00 0.01 0.01 56 1010.3
20260902063815 63 280 8.0 21.0 0.00 0.01 0.01 56 1010.5
20260902062817 64 253 8.0 22.0 0.00 0.01 0.01 55 1010.5
20260902061817 64 255 11.0 23.0 0.00 0.01 0.01 55 1010.5
20260902060817 64 259 15.0 23.0 0.00 0.01 0.01 55 1010.7
20260902055836 64 263 8.0 20.0 0.00 0.01 0.01 56 1010.5
20260902054816 64 243 6.0 17.0 0.00 0.01 0.01 56 1010.6
20260902053815 64 262 6.0 19.0 0.00 0.01 0.01 56 1010.6
20260902052815 64 258 5.0 17.0 0.00 0.01 0.01 55 1010.5
20260902051817 64 201 5.0 26.0 0.00 0.01 0.01 54 1010.6
20260902050817 64 255 9.0 30.0 0.00 0.01 0.01 55 1010.3
20260902045816 65 294 7.0 22.0 0.00 0.01 0.01 54 1010.2
20260902044836 65 258 6.0 26.0 0.00 0.01 0.01 54 1010.1
20260902043816 65 275 11.0 26.0 0.00 0.01 0.01 51 1010.0
20260902042815 65 257 5.0 25.0 0.00 0.01 0.01 51 1010.0
20260902041817 65 267 9.0 26.0 0.00 0.01 0.01 50 1009.8
20260902040817 65 290 6.0 34.0 0.00 0.01 0.01 50 1009.5